State Line, IL

11:43 AM CDT on September 27, 2016 (GMT -0500)
Vermilion County

Weather History for KDNV - December, 2013

Change the Weather History Date:

Friday, December 20, 2013

  Actual Average (KLAF) Record (KLAF)
Temperature  
Mean Temperature 46 °F 29 °F  
Max Temperature 57 °F 36 °F 62 °F (1988)
Min Temperature 34 °F 22 °F -9 °F (1981)
Degree Days  
Heating Degree Days 20 36  
Month to date heating degree days 663  
Since 1 July heating degree days 1764  
Cooling Degree Days 0 0  
Month to date cooling degree days 0  
Year to date cooling degree days 983  
Moisture  
Dew Point 48 °F    
Average Humidity 94    
Maximum Humidity 97    
Minimum Humidity 89    
Precipitation  
Precipitation 0.08 in 0.07 in 1.09 in (2012)
Month to date precipitation 1.70  
Year to date precipitation 35.77  
Sea Level Pressure  
Sea Level Pressure 29.74 in    
Wind  
Wind Speed 13 mph (SW)    
Max Wind Speed 20 mph    
Max Gust Speed 26 mph    
Visibility 8 miles    
Events Rain    
T = Trace of Precipitation, MM = Missing Value Source: NWS Daily Summary

Daily Weather History Graph

Daily Weather History Graph

Search for Another Location

Airport or City:

Trip Planner

Search our weather history database for the weather conditions in past years. The results will help you decide how hot, cold, wet, or windy it might be!

Date:

Astronomy

Dec. 20, 2013 Rise Set
Actual Time 7:08 AM CST 4:27 PM CST
Civil Twilight 6:38 AM CST 4:58 PM CST
Nautical Twilight 6:04 AM CST 5:32 PM CST
Astronomical Twilight 5:30 AM CST 6:05 PM CST
Moon 7:48 PM CST (12/20) 9:02 AM CST (12/20)
Length of Visible Light 10h 19m
Length of Day
9h 18m
Waning Gibbous, 90% of the Moon is Illuminated
Dec 20
Waning Gibbous
Dec 25
Last Quarter
Jan 1
New
Jan 7
First Quarter
Jan 15
Full

Hourly Weather History & Observations

Time (CST) Temp. Windchill Dew Point Humidity Pressure Visibility Wind Dir Wind Speed Gust Speed Precip Events Conditions
12:15 AM 44.4 °F 38.6 °F 41.7 °F 90% 29.78 in 10.0 mi SSW 11.5 mph 17.3 mph N/A   Light Drizzle
12:35 AM 45.1 °F 39.1 °F 42.8 °F 91% 29.78 in 10.0 mi SSW 12.7 mph - N/A Rain Light Rain
12:55 AM 45.5 °F 38.9 °F 43.3 °F 92% 29.77 in 7.0 mi SSW 15.0 mph - N/A   Drizzle
1:15 AM 45.3 °F 39.3 °F 43.5 °F 93% 29.77 in 10.0 mi SSW 12.7 mph 19.6 mph N/A   Overcast
1:35 AM 45.5 °F 38.9 °F 43.9 °F 94% 29.77 in 7.0 mi SSW 15.0 mph 21.9 mph N/A Rain Light Rain
1:55 AM 45.5 °F 40.3 °F 44.1 °F 95% 29.77 in 7.0 mi SSW 10.4 mph - N/A Rain Light Rain
2:15 AM 45.9 °F 40.0 °F 44.4 °F 95% 29.77 in 10.0 mi SSW 12.7 mph - N/A   Light Drizzle
2:35 AM 46.0 °F 40.6 °F 44.2 °F 93% 29.77 in 10.0 mi SSW 11.5 mph - N/A   Light Drizzle
2:55 AM 46.0 °F 40.6 °F 44.2 °F 93% 29.77 in 10.0 mi SSW 11.5 mph - N/A   Overcast
3:15 AM 46.6 °F - 44.6 °F 93% 29.76 in 10.0 mi SSW 11.5 mph - N/A   Overcast
3:35 AM 47.3 °F - 45.3 °F 93% 29.75 in 10.0 mi SSW 13.8 mph 19.6 mph N/A   Overcast
3:55 AM 47.7 °F - 45.5 °F 92% 29.75 in 10.0 mi SSW 15.0 mph 19.6 mph N/A   Overcast
4:15 AM 48.4 °F - 46.0 °F 92% 29.75 in 10.0 mi SSW 15.0 mph 20.7 mph N/A   Overcast
4:35 AM 48.2 °F - 45.9 °F 92% 29.75 in 10.0 mi SW 12.7 mph 18.4 mph N/A Rain Light Rain
4:55 AM 48.4 °F - 45.9 °F 91% 29.75 in 10.0 mi SSW 13.8 mph 21.9 mph N/A   Overcast
5:15 AM 47.8 °F - 45.9 °F 93% 29.75 in 7.0 mi SSW 11.5 mph 17.3 mph N/A Rain Rain
5:35 AM 48.2 °F - 46.4 °F 93% 29.74 in 10.0 mi SSW 13.8 mph 17.3 mph N/A Rain Light Rain
5:55 AM 48.2 °F - 46.6 °F 94% 29.74 in 10.0 mi SSW 13.8 mph 20.7 mph N/A   Overcast
6:15 AM 48.4 °F - 47.3 °F 96% 29.74 in 10.0 mi SSW 12.7 mph - N/A   Overcast
6:35 AM 48.9 °F - 47.5 °F 95% 29.74 in 10.0 mi SSW 12.7 mph - N/A Rain Rain
6:55 AM 49.1 °F - 48.0 °F 96% 29.74 in 7.0 mi SSW 15.0 mph - 0.01 in Rain Light Rain
7:15 AM 50.0 °F - 48.9 °F 96% 29.75 in 7.0 mi SSW 15.0 mph 18.4 mph 0.03 in Rain Heavy Rain
7:35 AM 50.4 °F - 49.3 °F 96% 29.75 in 7.0 mi SSW 10.4 mph - 0.05 in Rain Light Rain
7:55 AM 50.0 °F - 49.1 °F 97% 29.75 in 5.0 mi South 11.5 mph - 0.06 in Rain Heavy Rain
8:15 AM 50.0 °F - 49.1 °F 97% 29.74 in 10.0 mi South 11.5 mph - 0.01 in Rain Light Rain
8:35 AM 50.0 °F - 49.1 °F 97% 29.75 in 10.0 mi South 10.4 mph - 0.01 in Rain Light Rain
8:55 AM 50.5 °F - 49.5 °F 96% 29.74 in 10.0 mi South 11.5 mph - 0.01 in   Overcast
9:15 AM 51.1 °F - 50.0 °F 96% 29.74 in 10.0 mi SSW 13.8 mph 19.6 mph N/A   Overcast
9:35 AM 51.6 °F - 50.5 °F 96% 29.75 in 10.0 mi SSW 12.7 mph 21.9 mph N/A   Overcast
9:55 AM 51.6 °F - 50.7 °F 97% 29.74 in 7.0 mi SSW 15.0 mph - N/A   Overcast
10:15 AM 51.8 °F - 50.9 °F 97% 29.74 in 5.0 mi SSW 13.8 mph - N/A   Overcast
10:35 AM 52.5 °F - 51.4 °F 96% 29.73 in 5.0 mi SSW 17.3 mph 24.2 mph N/A   Overcast
10:55 AM 52.9 °F - 51.8 °F 96% 29.74 in 5.0 mi SSW 19.6 mph - N/A   Overcast
11:15 AM 53.2 °F - 52.2 °F 96% 29.73 in 5.0 mi SSW 15.0 mph 23.0 mph N/A   Overcast
11:35 AM 53.6 °F - 52.7 °F 97% 29.72 in 5.0 mi SSW 15.0 mph 24.2 mph N/A   Overcast
11:55 AM 54.5 °F - 53.2 °F 96% 29.71 in 5.0 mi SSW 15.0 mph 25.3 mph N/A   Overcast
12:15 PM 55.2 °F - 53.8 °F 95% 29.70 in 5.0 mi SSW 16.1 mph 25.3 mph N/A   Overcast
12:35 PM 55.9 °F - 54.5 °F 95% 29.70 in 5.0 mi SSW 15.0 mph 21.9 mph N/A   Overcast
12:55 PM 55.8 °F - 54.1 °F 94% 29.69 in 7.0 mi SSW 17.3 mph 24.2 mph N/A   Overcast
1:15 PM 55.6 °F - 54.1 °F 95% 29.68 in 7.0 mi SSW 12.7 mph - N/A   Overcast
1:35 PM 56.3 °F - 54.5 °F 94% 29.68 in 7.0 mi SSW 13.8 mph 20.7 mph N/A   Overcast
1:55 PM 56.5 °F - 54.7 °F 94% 29.68 in 7.0 mi SSW 15.0 mph - N/A   Overcast
2:15 PM 56.7 °F - 55.0 °F 94% 29.68 in 7.0 mi SSW 11.5 mph - N/A   Overcast
2:35 PM 56.8 °F - 54.9 °F 93% 29.69 in 7.0 mi SSW 15.0 mph - N/A   Overcast
2:55 PM 57.0 °F - 55.0 °F 93% 29.68 in 7.0 mi SSW 16.1 mph - N/A   Overcast
3:15 PM 57.2 °F - 55.4 °F 94% 29.68 in 7.0 mi SSW 11.5 mph - N/A   Overcast
3:35 PM 57.2 °F - 55.0 °F 92% 29.69 in 10.0 mi SSW 13.8 mph 19.6 mph N/A   Overcast
3:55 PM 57.4 °F - 55.0 °F 92% 29.69 in 10.0 mi SSW 16.1 mph - N/A   Overcast
4:15 PM 57.4 °F - 55.0 °F 92% 29.70 in 7.0 mi SSW 13.8 mph - N/A   Overcast
4:35 PM 57.4 °F - 55.0 °F 92% 29.69 in 10.0 mi South 13.8 mph 19.6 mph N/A   Overcast
4:55 PM 57.6 °F - 55.4 °F 92% 29.71 in 10.0 mi SW 12.7 mph - N/A   Overcast
5:15 PM 56.3 °F - 54.5 °F 94% 29.71 in 10.0 mi SSW 10.4 mph - N/A   Overcast
5:35 PM 55.8 °F - 54.0 °F 94% 29.71 in 10.0 mi SSW 10.4 mph - N/A   Overcast
5:55 PM 55.6 °F - 54.1 °F 95% 29.72 in 10.0 mi SSW 10.4 mph - N/A   Overcast
6:15 PM 56.1 °F - 54.1 °F 93% 29.73 in 10.0 mi WSW 10.4 mph - N/A   Overcast
6:35 PM 53.4 °F - 52.0 °F 95% 29.75 in 7.0 mi West 15.0 mph 18.4 mph N/A   Overcast
6:55 PM 50.9 °F - 49.3 °F 94% 29.74 in 7.0 mi WSW 11.5 mph - N/A   Overcast
7:15 PM 50.0 °F - 48.6 °F 95% 29.74 in 7.0 mi WSW 9.2 mph - N/A   Overcast
7:35 PM 49.1 °F - 47.5 °F 94% 29.74 in 7.0 mi SW 9.2 mph - N/A   Overcast
7:55 PM 49.1 °F - 46.0 °F 89% 29.75 in 10.0 mi WSW 18.4 mph - N/A   Overcast
8:15 PM 46.0 °F 39.3 °F 43.2 °F 90% 29.76 in 10.0 mi West 16.1 mph 26.5 mph N/A   Overcast
8:35 PM 42.3 °F 33.8 °F 40.3 °F 93% 29.78 in 7.0 mi West 18.4 mph 26.5 mph N/A   Overcast
8:55 PM 40.1 °F 32.7 °F 38.3 °F 93% 29.78 in 7.0 mi West 12.7 mph 17.3 mph N/A   Overcast
9:15 PM 38.5 °F 30.7 °F 36.3 °F 92% 29.78 in 10.0 mi West 12.7 mph 19.6 mph N/A   Overcast
9:35 PM 37.4 °F 30.3 °F 35.8 °F 94% 29.79 in 7.0 mi West 10.4 mph - N/A Rain Light Rain
9:55 PM 36.7 °F 28.9 °F 35.4 °F 95% 29.79 in 7.0 mi West 11.5 mph 18.4 mph N/A Rain Light Rain
10:15 PM 36.1 °F 29.9 °F 34.9 °F 95% 29.79 in 7.0 mi West 8.1 mph - N/A   Light Drizzle
10:35 PM 35.6 °F 29.9 °F 34.7 °F 97% 29.80 in 5.0 mi West 6.9 mph - N/A   Overcast
10:55 PM 35.4 °F 29.0 °F 34.7 °F 97% 29.80 in 5.0 mi West 8.1 mph - N/A   Overcast
11:15 PM 34.7 °F 28.8 °F 34.0 °F 97% 29.79 in 4.0 mi West 6.9 mph - N/A   Overcast
11:35 PM 34.7 °F 28.1 °F 34.0 °F 97% 29.78 in 5.0 mi West 8.1 mph - N/A   Overcast
11:55 PM 34.7 °F 30.6 °F 34.0 °F 97% 29.78 in 4.0 mi West 4.6 mph - N/A   Overcast